Location: Santa Barbara
(34.4500°N, 119.7700°W)
Time: 10:06:08
(UTC-08:00)

Cosmos 1626 Rocket - Visible Passes

Search period start: 01 March 2017 00:00
Search period end: 11 March 2017 00:00
Orbit: 604 x 631 km, 82.5° (Epoch: 01 March)

Date Brightness Start Highest point End Pass type
(mag) Time Alt. Az. Time Alt. Az. Time Alt. Az.
01 Mar 5.5 20:14:42 10° NNW 20:16:28 23° NNW 20:16:28 23° NNW visible
02 Mar 5.2 18:55:06 10° NE 18:57:04 16° ENE 18:57:04 16° ENE visible
02 Mar 5.6 20:31:51 10° NNW 20:34:16 26° NW 20:34:16 26° NW visible
03 Mar 4.3 19:11:01 10° NNE 19:15:00 31° ENE 19:15:04 31° E visible
03 Mar 6.2 20:49:32 10° NW 20:52:17 18° W 20:52:17 18° W visible
04 Mar 3.5 19:27:28 10° N 19:31:54 61° E 19:33:22 39° SE visible
05 Mar 3.9 19:44:16 10° NNW 19:48:43 67° W 19:52:11 16° S visible
06 Mar 5.1 18:24:39 10° NE 18:27:34 17° ENE 18:30:26 10° ESE visible
06 Mar 5.2 20:01:26 10° NNW 20:05:26 33° W 20:09:27 10° SSW visible
07 Mar 4.3 18:40:34 10° NNE 18:44:34 31° ENE 18:48:31 10° SE visible
07 Mar 6.3 20:19:07 10° NW 20:22:05 18° W 20:25:03 10° SW visible
08 Mar 3.6 18:57:01 10° N 19:01:28 61° E 19:05:51 10° SSE visible
09 Mar 4.0 19:13:50 10° NNW 19:18:17 67° W 19:22:41 10° S visible
10 Mar 5.4 19:31:00 10° NNW 19:35:01 33° W 19:38:59 10° SSW visible
